Flag for Poland Weather past 2 weeks in Radom, Poland

Now
49 °F

Passing clouds.


Feels Like: 49 °F
Forecast: 51 / 71 °F
Wind: 1 mph from West

Location: Kielce

Current Time: Aug 28, 2014 at 7:22:52 AM

Latest Report: Aug 28, 2014 at 6:00 AM


Visibility: 8 mi

Pressure: 30.03 "Hg

Humidity: 96%

Dew point: 48 °F

Location of RadomLocation

Historic Weather in Radom — Graph

°F

Radom temperature yesterday

Maximum temperature yesterday: 61 °F (at 4:00 PM)
Minimum temperature yesterday: 51 °F (at 6:00 AM)
Average temperature yesterday: 55 °F

Past Weeks' High & Low Weather Summary

 TemperatureHumidityPressure
High74 °F (Aug 18, 2:00 PM)100% (Aug 15, 2:00 AM)30.12 "Hg (Aug 15, 2:00 AM)
Low42 °F (Aug 22, 6:00 AM)44% (Aug 22, 4:00 PM)29.62 "Hg (Aug 14, 12:00 AM)
Average58 °F83%29.92 "Hg
* Reported Aug 13 8:00 AM — Aug 28 6:00 AM, Radom, Weather by CustomWeather, © 2014

Note: Actual official high and low records may vary slightly from our data, if they occured in-between our weather recording intervals... More about our weather records

Advertising

Radom weather history for previous 24 hours

 ConditionsComfort  
Time TempWeatherWind HumidityBarometerVisibility
6:00 AM
Aug 28
49 °FPassing clouds.1 mph96%30.03 "Hg8 mi
5:00 AM51 °FPassing clouds.1 mph96%30.01 "Hg11 mi
4:00 AM52 °FLow clouds.1 mph96%30.00 "Hg7 mi
3:00 AM52 °FOvercast.1 mph96%29.98 "Hg9 mi
2:00 AM53 °FLow clouds.2 mph95%29.98 "Hg11 mi
1:00 AM52 °FOvercast.3 mph95%29.98 "Hg17 mi
12:00 AM52 °FOvercast.1 mph96%29.98 "Hg14 mi
11:00 PM
Aug 27
53 °FOvercast.1 mph95%29.97 "Hg14 mi
10:00 PM53 °FSprinkles. Overcast.2 mph92%29.96 "Hg9 mi
9:00 PM53 °FSprinkles. Overcast.2 mph92%29.95 "Hg9 mi
8:00 PM56 °FOvercast.2 mph84%29.91 "Hg8 mi
7:00 PM59 °FPartly sunny.2 mph75%29.90 "Hg25 mi
6:00 PM60 °FOvercast.2 mph72%29.88 "Hg25 mi
4:00 PM61 °FOvercast.5 mph62%29.87 "Hg22 mi
3:00 PM60 °FOvercast.5 mph71%29.86 "Hg22 mi
2:00 PM59 °FOvercast.5 mph68%29.86 "Hg19 mi
1:00 PM60 °FOvercast.2 mph64%29.86 "Hg17 mi
12:00 PM59 °FOvercast.5 mph68%29.85 "Hg17 mi
10:00 AM58 °FOvercast.2 mph80%29.84 "Hg11 mi
9:00 AM55 °FLow clouds.1 mph88%29.84 "Hg6 mi
8:00 AM52 °FFog.1 mph95%29.83 "Hg2 mi
7:00 AM51 °FFog.2 mph97%29.83 "Hg1 mi
Weather by CustomWeather, © 2014

See weather overviewHow to use our weather pages